Year,Month,Day,Hour,Minute,Value (Times are PST for temperature in C)
2007,07,11,00,00,25.10
2007,07,11,00,01,25.10
2007,07,11,00,02,25.30
2007,07,11,00,03,25.40
2007,07,11,00,04,25.40
2007,07,11,00,05,25.50
2007,07,11,00,06,25.60
2007,07,11,00,07,25.60
2007,07,11,00,08,25.50
2007,07,11,00,09,25.40
2007,07,11,00,10,25.40
2007,07,11,00,11,25.40
2007,07,11,00,12,25.30
2007,07,11,00,13,25.10
2007,07,11,00,14,25.10
2007,07,11,00,15,25.00
2007,07,11,00,16,24.90
2007,07,11,00,17,24.80
2007,07,11,00,18,24.70
2007,07,11,00,19,24.50
2007,07,11,00,20,24.40
2007,07,11,00,21,24.30
2007,07,11,00,22,24.20
2007,07,11,00,23,24.20
2007,07,11,00,24,24.20
2007,07,11,00,25,24.10
2007,07,11,00,26,24.10
2007,07,11,00,27,24.10
2007,07,11,00,28,24.00
2007,07,11,00,29,23.80
2007,07,11,00,30,23.70
2007,07,11,00,31,23.70
2007,07,11,00,32,23.60
2007,07,11,00,33,23.50
2007,07,11,00,34,23.40
2007,07,11,00,35,23.30
2007,07,11,00,36,23.30
2007,07,11,00,37,23.20
2007,07,11,00,38,23.20
2007,07,11,00,39,23.10
2007,07,11,00,40,23.00
2007,07,11,00,41,22.90
2007,07,11,00,42,22.90
2007,07,11,00,43,22.90
2007,07,11,00,44,22.90
2007,07,11,00,45,22.90
2007,07,11,00,46,22.90
2007,07,11,00,47,22.90
2007,07,11,00,48,22.80
2007,07,11,00,49,22.80
2007,07,11,00,50,22.90
2007,07,11,00,51,22.90
2007,07,11,00,52,22.90
2007,07,11,00,53,22.90
2007,07,11,00,54,22.90
2007,07,11,00,55,22.90
2007,07,11,00,56,22.80
2007,07,11,00,57,22.80
2007,07,11,00,58,22.70
2007,07,11,00,59,22.70
2007,07,11,01,00,22.70
2007,07,11,01,01,22.80
2007,07,11,01,02,22.80
2007,07,11,01,03,22.80
2007,07,11,01,04,22.80
2007,07,11,01,05,22.80
2007,07,11,01,06,22.80
2007,07,11,01,07,22.90
2007,07,11,01,08,22.90
2007,07,11,01,09,22.80
2007,07,11,01,10,22.80
2007,07,11,01,11,22.80
2007,07,11,01,12,22.70
2007,07,11,01,13,22.70
2007,07,11,01,14,22.60
2007,07,11,01,15,22.60
2007,07,11,01,16,22.60
2007,07,11,01,17,22.40
2007,07,11,01,18,22.40
2007,07,11,01,19,22.30
2007,07,11,01,20,22.30
2007,07,11,01,21,22.30
2007,07,11,01,22,22.20
2007,07,11,01,23,22.20
2007,07,11,01,24,22.10
2007,07,11,01,25,22.10
2007,07,11,01,26,22.10
2007,07,11,01,27,22.10
2007,07,11,01,28,22.10
2007,07,11,01,29,22.10
2007,07,11,01,30,22.10
2007,07,11,01,31,22.10
2007,07,11,01,32,22.20
2007,07,11,01,33,22.20
2007,07,11,01,34,22.40
2007,07,11,01,35,22.50
2007,07,11,01,36,22.60
2007,07,11,01,37,22.70
2007,07,11,01,38,22.80
2007,07,11,01,39,22.80
2007,07,11,01,40,22.80
2007,07,11,01,41,22.80
2007,07,11,01,42,22.80
2007,07,11,01,43,22.70
2007,07,11,01,44,22.70
2007,07,11,01,45,22.60
2007,07,11,01,46,22.60
2007,07,11,01,47,22.60
2007,07,11,01,48,22.60
2007,07,11,01,49,22.60
2007,07,11,01,50,22.70
2007,07,11,01,51,22.80
2007,07,11,01,52,22.90
2007,07,11,01,53,22.90
2007,07,11,01,54,22.80
2007,07,11,01,55,22.70
2007,07,11,01,56,22.70
2007,07,11,01,57,22.60
2007,07,11,01,58,22.50
2007,07,11,01,59,22.40
2007,07,11,02,00,22.40
2007,07,11,02,01,22.30
2007,07,11,02,02,22.20
2007,07,11,02,03,22.10
2007,07,11,02,04,22.10
2007,07,11,02,05,22.00
2007,07,11,02,06,22.00
2007,07,11,02,07,21.90
2007,07,11,02,08,21.80
2007,07,11,02,09,21.80
2007,07,11,02,10,21.70
2007,07,11,02,11,21.60
2007,07,11,02,12,21.60
2007,07,11,02,13,21.50
2007,07,11,02,14,21.40
2007,07,11,02,15,21.40
2007,07,11,02,16,21.30
2007,07,11,02,17,21.30
2007,07,11,02,18,21.30
2007,07,11,02,19,21.20
2007,07,11,02,20,21.20
2007,07,11,02,21,21.20
2007,07,11,02,22,21.20
2007,07,11,02,23,21.10
2007,07,11,02,24,21.00
2007,07,11,02,25,21.00
2007,07,11,02,26,21.00
2007,07,11,02,27,21.00
2007,07,11,02,28,21.10
2007,07,11,02,29,21.10
2007,07,11,02,30,21.20
2007,07,11,02,31,21.30
2007,07,11,02,32,21.30
2007,07,11,02,33,21.30
2007,07,11,02,34,21.40
2007,07,11,02,35,21.40
2007,07,11,02,36,21.60
2007,07,11,02,37,21.60
2007,07,11,02,38,21.60
2007,07,11,02,39,21.60
2007,07,11,02,40,21.60
2007,07,11,02,41,21.60
2007,07,11,02,42,21.60
2007,07,11,02,43,21.60
2007,07,11,02,44,21.60
2007,07,11,02,45,21.50
2007,07,11,02,46,21.40
2007,07,11,02,47,21.40
2007,07,11,02,48,21.40
2007,07,11,02,49,21.30
2007,07,11,02,50,21.30
2007,07,11,02,51,21.30
2007,07,11,02,52,21.10
2007,07,11,02,53,21.00
2007,07,11,02,54,20.90
2007,07,11,02,55,20.80
2007,07,11,02,56,20.70
2007,07,11,02,57,20.60
2007,07,11,02,58,20.60
2007,07,11,02,59,20.50
2007,07,11,03,00,20.40
2007,07,11,03,01,20.40
2007,07,11,03,02,20.40
2007,07,11,03,03,20.40
2007,07,11,03,04,20.50
2007,07,11,03,05,20.50
2007,07,11,03,06,20.50
2007,07,11,03,07,20.60
2007,07,11,03,08,20.60
2007,07,11,03,09,20.60
2007,07,11,03,10,20.60
2007,07,11,03,11,20.70
2007,07,11,03,12,20.70
2007,07,11,03,13,20.70
2007,07,11,03,14,20.70
2007,07,11,03,15,20.70
2007,07,11,03,16,20.70
2007,07,11,03,17,20.70
2007,07,11,03,18,20.70
2007,07,11,03,19,20.70
2007,07,11,03,20,20.70
2007,07,11,03,21,20.70
2007,07,11,03,22,20.70
2007,07,11,03,23,20.70
2007,07,11,03,24,20.70
2007,07,11,03,25,20.80
2007,07,11,03,26,20.80
2007,07,11,03,27,20.80
2007,07,11,03,28,20.80
2007,07,11,03,29,20.80
2007,07,11,03,30,20.90
2007,07,11,03,31,20.90
2007,07,11,03,32,20.90
2007,07,11,03,33,21.00
2007,07,11,03,34,21.00
2007,07,11,03,35,21.00
2007,07,11,03,36,21.00
2007,07,11,03,37,21.00
2007,07,11,03,38,21.10
2007,07,11,03,39,21.10
2007,07,11,03,40,21.10
2007,07,11,03,41,21.10
2007,07,11,03,42,21.10
2007,07,11,03,43,21.10
2007,07,11,03,44,21.10
2007,07,11,03,45,21.10
2007,07,11,03,46,21.10
2007,07,11,03,47,21.10
2007,07,11,03,48,21.10
2007,07,11,03,49,21.10
2007,07,11,03,50,21.10
2007,07,11,03,51,21.10
2007,07,11,03,52,21.20
2007,07,11,03,53,21.20
2007,07,11,03,54,21.20
2007,07,11,03,55,21.20
2007,07,11,03,56,21.20
2007,07,11,03,57,21.20
2007,07,11,03,58,21.20
2007,07,11,03,59,21.10
2007,07,11,04,00,21.10
2007,07,11,04,01,21.10
2007,07,11,04,02,21.10
2007,07,11,04,03,21.10
2007,07,11,04,04,21.10
2007,07,11,04,05,21.10
2007,07,11,04,06,21.10
2007,07,11,04,07,21.10
2007,07,11,04,08,21.00
2007,07,11,04,09,21.00
2007,07,11,04,10,21.00
2007,07,11,04,11,21.00
2007,07,11,04,12,21.00
2007,07,11,04,13,21.00
2007,07,11,04,14,21.00
2007,07,11,04,15,21.00
2007,07,11,04,16,21.00
2007,07,11,04,17,21.00
2007,07,11,04,18,21.00
2007,07,11,04,19,20.90
2007,07,11,04,20,20.90
2007,07,11,04,21,20.90
2007,07,11,04,22,20.90
2007,07,11,04,23,20.90
2007,07,11,04,24,20.90
2007,07,11,04,25,20.90
2007,07,11,04,26,21.00
2007,07,11,04,27,21.00
2007,07,11,04,28,21.00
2007,07,11,04,29,21.10
2007,07,11,04,30,21.10
2007,07,11,04,31,21.10
2007,07,11,04,32,21.20
2007,07,11,04,33,21.20
2007,07,11,04,34,21.20
2007,07,11,04,35,21.30
2007,07,11,04,36,21.30
2007,07,11,04,37,21.30
2007,07,11,04,38,21.40
2007,07,11,04,39,21.40
2007,07,11,04,40,21.40
2007,07,11,04,41,21.40
2007,07,11,04,42,21.40
2007,07,11,04,43,21.60
2007,07,11,04,44,21.60
2007,07,11,04,45,21.60
2007,07,11,04,46,21.60
2007,07,11,04,47,21.60
2007,07,11,04,48,21.60
2007,07,11,04,49,21.60
2007,07,11,04,50,21.60
2007,07,11,04,51,21.70
2007,07,11,04,52,21.70
2007,07,11,04,53,21.70
2007,07,11,04,54,21.70
2007,07,11,04,55,21.70
2007,07,11,04,56,21.70
2007,07,11,04,57,21.70
2007,07,11,04,58,21.70
2007,07,11,04,59,21.80
2007,07,11,05,00,21.80
2007,07,11,05,01,21.80
2007,07,11,05,02,21.70
2007,07,11,05,03,21.80
2007,07,11,05,04,21.80
2007,07,11,05,05,21.80
2007,07,11,05,06,21.80
2007,07,11,05,07,21.80
2007,07,11,05,08,21.90
2007,07,11,05,09,21.90
2007,07,11,05,10,21.90
2007,07,11,05,11,21.90
2007,07,11,05,12,21.90
2007,07,11,05,13,21.90
2007,07,11,05,14,21.90
2007,07,11,05,15,21.90
2007,07,11,05,16,22.00
2007,07,11,05,17,22.00
2007,07,11,05,18,22.00
2007,07,11,05,19,22.00
2007,07,11,05,20,22.10
2007,07,11,05,21,22.10
2007,07,11,05,22,22.10
2007,07,11,05,23,22.10
2007,07,11,05,24,22.10
2007,07,11,05,25,22.10
2007,07,11,05,26,22.10
2007,07,11,05,27,22.10
2007,07,11,05,28,22.00
2007,07,11,05,29,22.00
2007,07,11,05,30,22.00
2007,07,11,05,31,22.00
2007,07,11,05,32,22.00
2007,07,11,05,33,22.00
2007,07,11,05,34,21.90
2007,07,11,05,35,21.90
2007,07,11,05,36,21.90
2007,07,11,05,37,21.80
2007,07,11,05,38,21.80
2007,07,11,05,39,21.80
2007,07,11,05,40,21.80
2007,07,11,05,41,21.80
2007,07,11,05,42,21.80
2007,07,11,05,43,21.70
2007,07,11,05,44,21.70
2007,07,11,05,45,21.70
2007,07,11,05,46,21.70
2007,07,11,05,47,21.70
2007,07,11,05,48,21.70
2007,07,11,05,49,21.70
2007,07,11,05,50,21.70
2007,07,11,05,51,21.70
2007,07,11,05,52,21.70
2007,07,11,05,53,21.70
2007,07,11,05,54,21.70
2007,07,11,05,55,21.60
2007,07,11,05,56,21.60
2007,07,11,05,57,21.60
2007,07,11,05,58,21.60
2007,07,11,05,59,21.60
2007,07,11,06,00,21.60
2007,07,11,06,01,21.60
2007,07,11,06,02,21.60
2007,07,11,06,03,21.60
2007,07,11,06,04,21.60
2007,07,11,06,05,21.60
2007,07,11,06,06,21.60
2007,07,11,06,07,21.60
2007,07,11,06,08,21.60
2007,07,11,06,09,21.60
2007,07,11,06,10,21.60
2007,07,11,06,11,21.60
2007,07,11,06,12,21.60
2007,07,11,06,13,21.60
2007,07,11,06,14,21.60
2007,07,11,06,15,21.60
2007,07,11,06,16,21.60
2007,07,11,06,17,21.60
2007,07,11,06,18,21.40
2007,07,11,06,19,21.40
2007,07,11,06,20,21.40
2007,07,11,06,21,21.40
2007,07,11,06,22,21.30
2007,07,11,06,23,21.30
2007,07,11,06,24,21.30
2007,07,11,06,25,21.30
2007,07,11,06,26,21.30
2007,07,11,06,27,21.30
2007,07,11,06,28,21.30
2007,07,11,06,29,21.30
2007,07,11,06,30,21.30
2007,07,11,06,31,21.30
2007,07,11,06,32,21.30
2007,07,11,06,33,21.30
2007,07,11,06,34,21.30
2007,07,11,06,35,21.30
2007,07,11,06,36,21.30
2007,07,11,06,37,21.30
2007,07,11,06,38,21.30
2007,07,11,06,39,21.30
2007,07,11,06,40,21.30
2007,07,11,06,41,21.30
2007,07,11,06,42,21.30
2007,07,11,06,43,21.30
2007,07,11,06,44,21.30
2007,07,11,06,45,21.30
2007,07,11,06,46,21.30
2007,07,11,06,47,21.40
2007,07,11,06,48,21.40
2007,07,11,06,49,21.40
2007,07,11,06,50,21.40
2007,07,11,06,51,21.40
2007,07,11,06,52,21.50
2007,07,11,06,53,21.60
2007,07,11,06,54,21.60
2007,07,11,06,55,21.60
2007,07,11,06,56,21.60
2007,07,11,06,57,21.70
2007,07,11,06,58,21.70
2007,07,11,06,59,21.80
2007,07,11,07,00,21.80
2007,07,11,07,01,21.80
2007,07,11,07,02,21.90
2007,07,11,07,03,21.90
2007,07,11,07,04,22.00
2007,07,11,07,05,22.00
2007,07,11,07,06,22.10
2007,07,11,07,07,22.10
2007,07,11,07,08,22.20
2007,07,11,07,09,22.20
2007,07,11,07,10,22.30
2007,07,11,07,11,22.40
2007,07,11,07,12,22.40
2007,07,11,07,13,22.50
2007,07,11,07,14,22.60
2007,07,11,07,15,22.60
2007,07,11,07,16,22.70
2007,07,11,07,17,22.80
2007,07,11,07,18,22.80
2007,07,11,07,19,22.80
2007,07,11,07,20,22.90
2007,07,11,07,21,22.90
2007,07,11,07,22,23.00
2007,07,11,07,23,23.10
2007,07,11,07,24,23.20
2007,07,11,07,25,23.30
2007,07,11,07,26,23.40
2007,07,11,07,27,23.40
2007,07,11,07,28,23.60
2007,07,11,07,29,23.60
2007,07,11,07,30,23.70
2007,07,11,07,31,23.70
2007,07,11,07,32,23.80
2007,07,11,07,33,23.80
2007,07,11,07,34,23.90
2007,07,11,07,35,23.90
2007,07,11,07,36,23.90
2007,07,11,07,37,23.90
2007,07,11,07,38,23.90
2007,07,11,07,39,24.10
2007,07,11,07,40,24.10
2007,07,11,07,41,24.10
2007,07,11,07,42,24.10
2007,07,11,07,43,24.10
2007,07,11,07,44,24.10
2007,07,11,07,45,24.10
2007,07,11,07,46,24.10
2007,07,11,07,47,24.10
2007,07,11,07,48,24.10
2007,07,11,07,49,24.10
2007,07,11,07,50,24.10
2007,07,11,07,51,24.20
2007,07,11,07,52,24.20
2007,07,11,07,53,24.20
2007,07,11,07,54,24.20
2007,07,11,07,55,24.20
2007,07,11,07,56,24.30
2007,07,11,07,57,24.30
2007,07,11,07,58,24.30
2007,07,11,07,59,24.30
2007,07,11,08,00,24.30
2007,07,11,08,01,24.30
2007,07,11,08,02,24.30
2007,07,11,08,03,24.30
2007,07,11,08,04,24.30
2007,07,11,08,05,24.30
2007,07,11,08,06,24.40
2007,07,11,08,07,24.40
2007,07,11,08,08,24.40
2007,07,11,08,09,24.50
2007,07,11,08,10,24.50
2007,07,11,08,11,24.50
2007,07,11,08,12,24.50
2007,07,11,08,13,24.50
2007,07,11,08,14,24.60
2007,07,11,08,15,24.60
2007,07,11,08,16,24.60
2007,07,11,08,17,24.70
2007,07,11,08,18,24.70
2007,07,11,08,19,24.80
2007,07,11,08,20,24.90
2007,07,11,08,21,24.90
2007,07,11,08,22,25.00
2007,07,11,08,23,25.10
2007,07,11,08,24,25.10
2007,07,11,08,25,25.20
2007,07,11,08,26,25.20
2007,07,11,08,27,25.20
2007,07,11,08,28,25.20
2007,07,11,08,29,25.20
2007,07,11,08,30,25.30
2007,07,11,08,31,25.30
2007,07,11,08,32,25.30
2007,07,11,08,33,25.30
2007,07,11,08,34,25.30
2007,07,11,08,35,25.30
2007,07,11,08,36,25.30
2007,07,11,08,37,25.40
2007,07,11,08,38,25.50
2007,07,11,08,39,25.60
2007,07,11,08,40,25.60
2007,07,11,08,41,25.60
2007,07,11,08,42,25.70
2007,07,11,08,43,25.70
2007,07,11,08,44,25.70
2007,07,11,08,45,25.70
2007,07,11,08,46,25.70
2007,07,11,08,47,25.80
2007,07,11,08,48,25.80
2007,07,11,08,49,25.80
2007,07,11,08,50,25.80
2007,07,11,08,51,25.90
2007,07,11,08,52,25.90
2007,07,11,08,53,25.90
2007,07,11,08,54,26.00
2007,07,11,08,55,26.00
2007,07,11,08,56,26.10
2007,07,11,08,57,26.20
2007,07,11,08,58,26.30
2007,07,11,08,59,26.40
2007,07,11,09,00,26.40
2007,07,11,09,01,26.40
2007,07,11,09,02,26.40
2007,07,11,09,03,26.50
2007,07,11,09,04,26.60
2007,07,11,09,05,26.60
2007,07,11,09,06,26.60
2007,07,11,09,07,26.70
2007,07,11,09,08,26.70
2007,07,11,09,09,26.70
2007,07,11,09,10,26.70
2007,07,11,09,11,26.90
2007,07,11,09,12,27.00
2007,07,11,09,13,27.20
2007,07,11,09,14,27.30
2007,07,11,09,15,27.30
2007,07,11,09,16,27.30
2007,07,11,09,17,27.40
2007,07,11,09,18,27.40
2007,07,11,09,19,27.60
2007,07,11,09,20,27.60
2007,07,11,09,21,27.50
2007,07,11,09,22,27.40
2007,07,11,09,23,27.40
2007,07,11,09,24,27.40
2007,07,11,09,25,27.40
2007,07,11,09,26,27.40
2007,07,11,09,27,27.40
2007,07,11,09,28,27.40
2007,07,11,09,29,27.50
2007,07,11,09,30,27.60
2007,07,11,09,31,27.70
2007,07,11,09,32,27.70
2007,07,11,09,33,27.80
2007,07,11,09,34,27.80
2007,07,11,09,35,27.80
2007,07,11,09,36,27.70
2007,07,11,09,37,27.70
2007,07,11,09,38,27.70
2007,07,11,09,39,27.80
2007,07,11,09,40,27.80
2007,07,11,09,41,27.70
2007,07,11,09,42,27.70
2007,07,11,09,43,27.80
2007,07,11,09,44,27.80
2007,07,11,09,45,27.90
2007,07,11,09,46,27.90
2007,07,11,09,47,27.90
2007,07,11,09,48,27.90
2007,07,11,09,49,28.00
2007,07,11,09,50,28.00
2007,07,11,09,51,28.00
2007,07,11,09,52,28.00
2007,07,11,09,53,28.00
2007,07,11,09,54,28.00
2007,07,11,09,55,28.10
2007,07,11,09,56,28.10
2007,07,11,09,57,28.20
2007,07,11,09,58,28.20
2007,07,11,09,59,28.20
2007,07,11,10,00,28.30
2007,07,11,10,01,28.30
2007,07,11,10,02,28.30
2007,07,11,10,03,28.40
2007,07,11,10,04,28.40
2007,07,11,10,05,28.40
2007,07,11,10,06,28.40
2007,07,11,10,07,28.40
2007,07,11,10,08,28.40
2007,07,11,10,09,28.40
2007,07,11,10,10,28.50
2007,07,11,10,11,28.60
2007,07,11,10,12,28.60
2007,07,11,10,13,28.60
2007,07,11,10,14,28.60
2007,07,11,10,15,28.60
2007,07,11,10,16,28.70
2007,07,11,10,17,28.70
2007,07,11,10,18,28.70
2007,07,11,10,19,28.70
2007,07,11,10,20,28.70
2007,07,11,10,21,28.70
2007,07,11,10,22,28.80
2007,07,11,10,23,28.80
2007,07,11,10,24,28.80
2007,07,11,10,25,28.80
2007,07,11,10,26,28.80
2007,07,11,10,27,28.80
2007,07,11,10,28,28.90
2007,07,11,10,29,28.90
2007,07,11,10,30,28.90
2007,07,11,10,31,28.90
2007,07,11,10,32,28.90
2007,07,11,10,33,28.90
2007,07,11,10,34,28.90
2007,07,11,10,35,28.90
2007,07,11,10,36,29.00
2007,07,11,10,37,29.10
2007,07,11,10,38,29.30
2007,07,11,10,39,29.30
2007,07,11,10,40,29.40
2007,07,11,10,41,29.40
2007,07,11,10,42,29.40
2007,07,11,10,43,29.40
2007,07,11,10,44,29.40
2007,07,11,10,45,29.30
2007,07,11,10,46,29.30
2007,07,11,10,47,29.40
2007,07,11,10,48,29.40
2007,07,11,10,49,29.50
2007,07,11,10,50,29.50
2007,07,11,10,51,29.50
2007,07,11,10,52,29.50
2007,07,11,10,53,29.50
2007,07,11,10,54,29.50
2007,07,11,10,55,29.50
2007,07,11,10,56,29.60
2007,07,11,10,57,29.70
2007,07,11,10,58,29.80
2007,07,11,10,59,29.90
2007,07,11,11,00,30.00
2007,07,11,11,01,30.10
2007,07,11,11,02,30.10
2007,07,11,11,03,30.10
2007,07,11,11,04,30.10
2007,07,11,11,05,30.10
2007,07,11,11,06,29.90
2007,07,11,11,07,29.90
2007,07,11,11,08,29.90
2007,07,11,11,09,30.10
2007,07,11,11,10,30.10
2007,07,11,11,11,30.20
2007,07,11,11,12,30.30
2007,07,11,11,13,30.30
2007,07,11,11,14,30.40
2007,07,11,11,15,30.30
2007,07,11,11,16,30.30
2007,07,11,11,17,30.40
2007,07,11,11,18,30.40
2007,07,11,11,19,30.30
2007,07,11,11,20,30.30
2007,07,11,11,21,30.40
2007,07,11,11,22,30.50
2007,07,11,11,23,30.60
2007,07,11,11,24,30.70
2007,07,11,11,25,30.70
2007,07,11,11,26,30.70
2007,07,11,11,27,30.70
2007,07,11,11,28,30.70
2007,07,11,11,29,30.80
2007,07,11,11,30,30.80
2007,07,11,11,31,30.90
2007,07,11,11,32,31.00
2007,07,11,11,33,31.10
2007,07,11,11,34,31.00
2007,07,11,11,35,31.00
2007,07,11,11,36,31.00
2007,07,11,11,37,31.00
2007,07,11,11,38,31.00
2007,07,11,11,39,31.00
2007,07,11,11,40,31.10
2007,07,11,11,41,31.20
2007,07,11,11,42,31.20
2007,07,11,11,43,31.10
2007,07,11,11,44,31.10
2007,07,11,11,45,31.10
2007,07,11,11,46,31.10
2007,07,11,11,47,31.20
2007,07,11,11,48,31.20
2007,07,11,11,49,31.20
2007,07,11,11,50,31.20
2007,07,11,11,51,31.20
2007,07,11,11,52,31.20
2007,07,11,11,53,31.20
2007,07,11,11,54,31.20
2007,07,11,11,55,31.20
2007,07,11,11,56,31.30
2007,07,11,11,57,31.30
2007,07,11,11,58,31.50
2007,07,11,11,59,31.60
2007,07,11,12,00,31.60
2007,07,11,12,01,31.70
2007,07,11,12,02,31.60
2007,07,11,12,03,31.60
2007,07,11,12,04,31.70
2007,07,11,12,05,31.70
2007,07,11,12,06,31.60
2007,07,11,12,07,31.60
2007,07,11,12,08,31.60
2007,07,11,12,09,31.70
2007,07,11,12,10,31.60
2007,07,11,12,11,31.60
2007,07,11,12,12,31.60
2007,07,11,12,13,31.80
2007,07,11,12,14,31.90
2007,07,11,12,15,32.00
2007,07,11,12,16,32.10
2007,07,11,12,17,32.20
2007,07,11,12,18,32.20
2007,07,11,12,19,32.20
2007,07,11,12,20,32.20
2007,07,11,12,21,32.10
2007,07,11,12,22,32.10
2007,07,11,12,23,31.90
2007,07,11,12,24,31.90
2007,07,11,12,25,32.00
2007,07,11,12,26,32.10
2007,07,11,12,27,32.10
2007,07,11,12,28,32.10
2007,07,11,12,29,32.10
2007,07,11,12,30,32.10
2007,07,11,12,31,31.90
2007,07,11,12,32,31.90
2007,07,11,12,33,31.90
2007,07,11,12,34,31.90
2007,07,11,12,35,31.90
2007,07,11,12,36,31.90
2007,07,11,12,37,31.80
2007,07,11,12,38,31.80
2007,07,11,12,39,31.80
2007,07,11,12,40,31.90
2007,07,11,12,41,31.90
2007,07,11,12,42,31.90
2007,07,11,12,43,31.90
2007,07,11,12,44,31.80
2007,07,11,12,45,31.80
2007,07,11,12,46,31.70
2007,07,11,12,47,31.70
2007,07,11,12,48,31.70
2007,07,11,12,49,31.70
2007,07,11,12,50,31.70
2007,07,11,12,51,31.70
2007,07,11,12,52,31.70
2007,07,11,12,53,31.70
2007,07,11,12,54,31.80
2007,07,11,12,55,31.80
2007,07,11,12,56,31.80
2007,07,11,12,57,31.80
2007,07,11,12,58,31.80
2007,07,11,12,59,31.90
2007,07,11,13,00,32.00
2007,07,11,13,01,32.10
2007,07,11,13,02,32.10
2007,07,11,13,03,32.10
2007,07,11,13,04,32.20
2007,07,11,13,05,32.30
2007,07,11,13,06,32.40
2007,07,11,13,07,32.40
2007,07,11,13,08,32.50
2007,07,11,13,09,32.40
2007,07,11,13,10,32.40
2007,07,11,13,11,32.40
2007,07,11,13,12,32.40
2007,07,11,13,13,32.50
2007,07,11,13,14,32.50
2007,07,11,13,15,32.60
2007,07,11,13,16,32.60
2007,07,11,13,17,32.60
2007,07,11,13,18,32.80
2007,07,11,13,19,32.70
2007,07,11,13,20,32.60
2007,07,11,13,21,32.60
2007,07,11,13,22,32.50
2007,07,11,13,23,32.50
2007,07,11,13,24,32.60
2007,07,11,13,25,32.60
2007,07,11,13,26,32.80
2007,07,11,13,27,32.90
2007,07,11,13,28,33.00
2007,07,11,13,29,33.10
2007,07,11,13,30,33.20
2007,07,11,13,31,33.30
2007,07,11,13,32,33.40
2007,07,11,13,33,33.40
2007,07,11,13,34,33.40
2007,07,11,13,35,33.40
2007,07,11,13,36,33.30
2007,07,11,13,37,33.10
2007,07,11,13,38,33.00
2007,07,11,13,39,33.00
2007,07,11,13,40,33.00
2007,07,11,13,41,33.00
2007,07,11,13,42,33.00
2007,07,11,13,43,33.00
2007,07,11,13,44,33.00
2007,07,11,13,45,33.00
2007,07,11,13,46,32.90
2007,07,11,13,47,32.80
2007,07,11,13,48,32.90
2007,07,11,13,49,32.90
2007,07,11,13,50,33.00
2007,07,11,13,51,33.00
2007,07,11,13,52,33.10
2007,07,11,13,53,33.20
2007,07,11,13,54,33.40
2007,07,11,13,55,33.40
2007,07,11,13,56,33.50
2007,07,11,13,57,33.50
2007,07,11,13,58,33.50
2007,07,11,13,59,33.50
2007,07,11,14,00,33.50
2007,07,11,14,01,33.50
2007,07,11,14,02,33.50
2007,07,11,14,03,33.50
2007,07,11,14,04,33.40
2007,07,11,14,05,33.40
2007,07,11,14,06,33.40
2007,07,11,14,07,33.40
2007,07,11,14,08,33.50
2007,07,11,14,09,33.50
2007,07,11,14,10,33.50
2007,07,11,14,11,33.60
2007,07,11,14,12,33.60
2007,07,11,14,13,33.60
2007,07,11,14,14,33.60
2007,07,11,14,15,33.70
2007,07,11,14,16,33.60
2007,07,11,14,17,33.60
2007,07,11,14,18,33.70
2007,07,11,14,19,33.70
2007,07,11,14,20,33.70
2007,07,11,14,21,33.70
2007,07,11,14,22,33.70
2007,07,11,14,23,33.70
2007,07,11,14,24,33.80
2007,07,11,14,25,33.70
2007,07,11,14,26,33.60
2007,07,11,14,27,33.60
2007,07,11,14,28,33.50
2007,07,11,14,29,33.40
2007,07,11,14,30,33.40
2007,07,11,14,31,33.40
2007,07,11,14,32,33.30
2007,07,11,14,33,33.20
2007,07,11,14,34,33.30
2007,07,11,14,35,33.40
2007,07,11,14,36,33.40
2007,07,11,14,37,33.40
2007,07,11,14,38,33.50
2007,07,11,14,39,33.40
2007,07,11,14,40,33.40
2007,07,11,14,41,33.40
2007,07,11,14,42,33.50
2007,07,11,14,43,33.50
2007,07,11,14,44,33.60
2007,07,11,14,45,33.70
2007,07,11,14,46,33.60
2007,07,11,14,47,33.60
2007,07,11,14,48,33.60
2007,07,11,14,49,33.70
2007,07,11,14,50,33.90
2007,07,11,14,51,34.10
2007,07,11,14,52,34.30
2007,07,11,14,53,34.40
2007,07,11,14,54,34.40
2007,07,11,14,55,34.30
2007,07,11,14,56,34.20
2007,07,11,14,57,34.20
2007,07,11,14,58,34.20
2007,07,11,14,59,34.20
2007,07,11,15,00,34.30
2007,07,11,15,01,34.30
2007,07,11,15,02,34.30
2007,07,11,15,03,34.40
2007,07,11,15,04,34.30
2007,07,11,15,05,34.30
2007,07,11,15,06,34.30
2007,07,11,15,07,34.30
2007,07,11,15,08,34.40
2007,07,11,15,09,34.40
2007,07,11,15,10,34.40
2007,07,11,15,11,34.40
2007,07,11,15,12,34.40
2007,07,11,15,13,34.40
2007,07,11,15,14,34.40
2007,07,11,15,15,34.50
2007,07,11,15,16,34.80
2007,07,11,15,17,34.80
2007,07,11,15,18,34.90
2007,07,11,15,19,34.90
2007,07,11,15,20,34.90
2007,07,11,15,21,34.90
2007,07,11,15,22,34.90
2007,07,11,15,23,34.90
2007,07,11,15,24,35.00
2007,07,11,15,25,35.00
2007,07,11,15,26,34.90
2007,07,11,15,27,34.90
2007,07,11,15,28,34.90
2007,07,11,15,29,34.90
2007,07,11,15,30,34.90
2007,07,11,15,31,34.90
2007,07,11,15,32,34.80
2007,07,11,15,33,34.80
2007,07,11,15,34,34.80
2007,07,11,15,35,34.80
2007,07,11,15,36,34.70
2007,07,11,15,37,34.60
2007,07,11,15,38,34.60
2007,07,11,15,39,34.60
2007,07,11,15,40,34.60
2007,07,11,15,41,34.60
2007,07,11,15,42,34.60
2007,07,11,15,43,34.70
2007,07,11,15,44,34.70
2007,07,11,15,45,34.80
2007,07,11,15,46,34.80
2007,07,11,15,47,34.80
2007,07,11,15,48,34.80
2007,07,11,15,49,34.80
2007,07,11,15,50,34.90
2007,07,11,15,51,35.00
2007,07,11,15,52,35.10
2007,07,11,15,53,35.20
2007,07,11,15,54,35.30
2007,07,11,15,55,35.30
2007,07,11,15,56,35.40
2007,07,11,15,57,35.50
2007,07,11,15,58,35.50
2007,07,11,15,59,35.50
2007,07,11,16,00,35.30
2007,07,11,16,01,35.20
2007,07,11,16,02,35.10
2007,07,11,16,03,35.10
2007,07,11,16,04,35.10
2007,07,11,16,05,35.00
2007,07,11,16,06,34.90
2007,07,11,16,07,34.90
2007,07,11,16,08,34.90
2007,07,11,16,09,34.90
2007,07,11,16,10,34.90
2007,07,11,16,11,34.80
2007,07,11,16,12,34.80
2007,07,11,16,13,34.80
2007,07,11,16,14,34.80
2007,07,11,16,15,34.80
2007,07,11,16,16,34.80
2007,07,11,16,17,34.80
2007,07,11,16,18,34.80
2007,07,11,16,19,34.90
2007,07,11,16,20,35.10
2007,07,11,16,21,35.20
2007,07,11,16,22,35.30
2007,07,11,16,23,35.30
2007,07,11,16,24,35.30
2007,07,11,16,25,35.40
2007,07,11,16,26,35.50
2007,07,11,16,27,35.50
2007,07,11,16,28,35.40
2007,07,11,16,29,35.30
2007,07,11,16,30,35.30
2007,07,11,16,31,35.30
2007,07,11,16,32,35.30
2007,07,11,16,33,35.30
2007,07,11,16,34,35.30
2007,07,11,16,35,35.30
2007,07,11,16,36,35.30
2007,07,11,16,37,35.30
2007,07,11,16,38,35.30
2007,07,11,16,39,35.40
2007,07,11,16,40,35.50
2007,07,11,16,41,35.50
2007,07,11,16,42,35.50
2007,07,11,16,43,35.60
2007,07,11,16,44,35.60
2007,07,11,16,45,35.60
2007,07,11,16,46,35.50
2007,07,11,16,47,35.60
2007,07,11,16,48,35.60
2007,07,11,16,49,35.60
2007,07,11,16,50,35.60
2007,07,11,16,51,35.50
2007,07,11,16,52,35.50
2007,07,11,16,53,35.50
2007,07,11,16,54,35.60
2007,07,11,16,55,35.60
2007,07,11,16,56,35.60
2007,07,11,16,57,35.60
2007,07,11,16,58,35.60
2007,07,11,16,59,35.60
2007,07,11,17,00,35.60
2007,07,11,17,01,35.60
2007,07,11,17,02,35.60
2007,07,11,17,03,35.60
2007,07,11,17,04,35.60
2007,07,11,17,05,35.60
2007,07,11,17,06,35.50
2007,07,11,17,07,35.60
2007,07,11,17,08,35.60
2007,07,11,17,09,35.60
2007,07,11,17,10,35.50
2007,07,11,17,11,35.50
2007,07,11,17,12,35.50
2007,07,11,17,13,35.50
2007,07,11,17,14,35.60
2007,07,11,17,15,35.50
2007,07,11,17,16,35.50
2007,07,11,17,17,35.50
2007,07,11,17,18,35.40
2007,07,11,17,19,35.40